Total_Precipitation_Accumulation
1.38 1.71 2.22 2.90 3.37 3.57 3.65 3.79 3.75 3.77 3.78 3.70 3.72 3.93 4.08 4.09 4.06 4.20 4.25 4.06 3.95 4.02 4.22 4.23 4.14 3.83 3.59 3.46 3.42 3.35 3.12 2.84 2.64 2.60 2.46 2.18 1.94 1.91 1.84 1.78 1.77 1.64 1.59
1.31 1.75 2.16 2.61 2.97 3.33 3.49 3.63 3.60 3.81 4.06 4.40 4.84 5.10 5.22 5.15 4.99 4.91 4.82 4.67 4.56 4.58 4.62 4.61 4.30 3.97 3.80 3.58 3.34 3.24 3.08 2.84 2.73 2.66 2.68 2.35 2.13 1.84 1.63 1.68 1.65 1.58 1.56
1.35 1.71 1.93 2.30 2.59 2.93 3.19 3.35 3.59 4.06 4.58 5.21 5.98 6.32 6.07 5.69 5.47 5.15 5.08 4.89 4.67 4.62 4.63 4.36 4.09 3.85 3.65 3.49 3.28 3.18 3.10 2.85 2.74 2.72 2.82 2.55 2.28 2.03 1.84 1.66 1.56 1.56 1.58
1.41 1.58 1.80 2.05 2.24 2.61 3.04 3.41 3.82 4.41 5.07 5.62 6.12 6.36 6.25 5.98 5.70 5.25 4.87 4.51 4.20 4.01 3.89 3.77 3.52 3.38 3.25 3.09 2.92 2.92 2.89 2.77 2.58 2.52 2.36 2.24 2.13 2.08 1.92 1.74 1.57 1.54 1.57
1.32 1.44 1.62 1.85 2.13 2.51 2.94 3.40 3.85 4.46 5.00 5.52 5.89 6.11 6.13 5.99 5.61 4.94 4.33 3.96 3.63 3.39 3.12 2.89 2.78 2.77 2.70 2.50 2.31 2.28 2.28 2.25 2.20 2.17 2.05 1.97 1.91 1.87 1.81 1.75 1.67 1.60 1.50
1.46 1.45 1.52 1.69 2.11 2.44 2.86 3.19 3.55 4.22 4.92 5.44 5.78 6.02 6.00 5.72 5.10 4.43 3.89 3.56 3.29 3.03 2.76 2.59 2.42 2.34 2.23 2.06 1.89 1.79 1.77 1.81 1.84 1.88 1.87 1.75 1.69 1.67 1.70 1.62 1.54 1.52 1.45
1.38 1.39 1.57 1.69 2.15 2.44 2.62 2.90 3.24 3.70 4.20 4.62 4.87 5.02 5.07 4.83 4.43 4.06 3.60 3.25 3.02 2.76 2.45 2.16 1.96 1.85 1.78 1.70 1.64 1.52 1.45 1.50 1.54 1.53 1.53 1.53 1.48 1.49 1.56 1.61 1.54 1.47 1.40
1.32 1.34 1.55 1.72 1.81 2.01 2.28 2.60 2.86 3.14 3.38 3.56 3.73 3.69 3.66 3.62 3.48 3.17 2.76 2.45 2.21 2.06 1.89 1.69 1.57 1.51 1.50 1.44 1.40 1.31 1.22 1.26 1.37 1.41 1.47 1.46 1.44 1.51 1.56 1.62 1.69 1.69 1.55
1.29 1.37 1.53 1.61 1.60 1.69 2.00 2.21 2.28 2.45 2.49 2.45 2.45 2.48 2.50 2.49 2.43 2.31 2.04 1.72 1.49 1.39 1.33 1.28 1.26 1.15 1.15 1.18 1.19 1.16 1.15 1.19 1.19 1.23 1.29 1.33 1.38 1.46 1.48 1.53 1.64 1.82 1.78
1.26 1.33 1.44 1.57 1.59 1.60 1.80 1.92 1.85 1.82 1.88 1.94 1.89 1.81 1.83 1.85 1.86 1.80 1.63 1.44 1.27 1.15 1.06 1.02 0.99 0.89 0.84 0.88 0.96 0.99 1.04 1.13 1.11 1.07 1.09 1.12 1.18 1.37 1.49 1.56 1.66 1.80 1.86
1.30 1.39 1.37 1.38 1.40 1.41 1.41 1.46 1.49 1.52 1.52 1.50 1.51 1.48 1.42 1.40 1.41 1.44 1.40 1.26 1.15 1.03 0.91 0.84 0.84 0.82 0.76 0.75 0.82 0.83 0.87 0.97 0.99 0.94 0.96 1.00 1.08 1.19 1.28 1.40 1.54 1.72 1.88
1.40 1.42 1.36 1.26 1.27 1.34 1.31 1.25 1.26 1.27 1.28 1.30 1.30 1.30 1.20 1.16 1.15 1.13 1.13 1.08 1.06 1.01 0.93 0.87 0.83 0.76 0.71 0.73 0.75 0.74 0.72 0.78 0.82 0.84 0.90 0.86 0.89 1.02 1.12 1.25 1.35 1.50 1.64
1.59 1.58 1.47 1.29 1.23 1.26 1.27 1.12 1.06 1.06 1.00 1.03 1.09 1.17 1.10 1.02 1.00 0.96 0.95 1.00 0.99 0.96 0.91 0.86 0.80 0.73 0.71 0.74 0.74 0.69 0.68 0.65 0.66 0.74 0.83 0.87 0.95 1.03 1.12 1.25 1.29 1.37 1.42
1.55 1.52 1.46 1.32 1.30 1.23 1.19 1.02 0.95 0.96 0.93 0.88 0.88 0.95 0.99 0.96 0.91 0.90 0.89 0.85 0.83 0.83 0.77 0.72 0.72 0.72 0.67 0.61 0.59 0.58 0.60 0.63 0.63 0.65 0.70 0.77 0.90 1.02 1.16 1.21 1.29 1.41 1.51
1.55 1.59 1.53 1.35 1.34 1.31 1.24 1.06 0.95 0.94 0.92 0.93 0.91 0.90 0.91 0.86 0.85 0.88 0.86 0.77 0.74 0.68 0.64 0.62 0.62 0.62 0.58 0.52 0.52 0.54 0.54 0.62 0.66 0.68 0.66 0.63 0.70 0.83 0.93 1.00 1.19 1.44 1.60
1.61 1.52 1.43 1.37 1.38 1.36 1.28 1.12 1.01 0.93 0.92 1.01 1.04 0.98 0.97 0.91 0.86 0.86 0.85 0.78 0.77 0.71 0.62 0.64 0.61 0.53 0.43 0.45 0.46 0.47 0.51 0.58 0.64 0.72 0.70 0.59 0.57 0.60 0.66 0.74 0.88 1.11 1.36
1.82 1.72 1.56 1.48 1.52 1.45 1.28 1.18 1.07 1.01 0.99 1.00 0.97 0.99 0.99 0.91 0.83 0.79 0.87 0.85 0.82 0.73 0.66 0.65 0.62 0.55 0.45 0.42 0.40 0.41 0.45 0.55 0.65 0.75 0.77 0.64 0.53 0.62 0.69 0.70 0.71 0.80 0.98
1.84 1.73 1.62 1.57 1.53 1.47 1.38 1.28 1.14 1.03 0.98 0.96 0.91 0.89 0.89 0.90 0.83 0.81 0.84 0.83 0.83 0.81 0.71 0.64 0.65 0.64 0.46 0.42 0.40 0.41 0.49 0.59 0.62 0.64 0.70 0.75 0.76 0.66 0.65 0.70 0.84 0.99 1.07
1.69 1.63 1.57 1.59 1.50 1.41 1.33 1.23 1.11 0.98 0.87 0.86 0.85 0.78 0.73 0.70 0.68 0.68 0.71 0.79 0.82 0.82 0.71 0.64 0.69 0.66 0.51 0.42 0.41 0.42 0.51 0.60 0.59 0.54 0.53 0.57 0.65 0.62 0.67 0.83 1.07 1.27 1.43
1.45 1.41 1.37 1.37 1.38 1.30 1.23 1.20 1.11 0.97 0.80 0.69 0.64 0.62 0.63 0.61 0.62 0.65 0.69 0.69 0.75 0.77 0.66 0.59 0.60 0.55 0.45 0.39 0.38 0.43 0.48 0.57 0.55 0.57 0.56 0.60 0.61 0.62 0.77 0.94 1.24 1.47 1.58
1.32 1.22 1.17 1.16 1.15 1.09 1.01 1.00 0.95 0.84 0.62 0.51 0.49 0.52 0.52 0.51 0.51 0.60 0.65 0.65 0.64 0.68 0.67 0.59 0.53 0.45 0.35 0.31 0.34 0.38 0.40 0.47 0.54 0.57 0.66 0.72 0.73 0.69 0.79 0.98 1.21 1.43 1.50
1.27 1.14 1.06 0.97 0.91 0.85 0.89 0.88 0.74 0.57 0.46 0.44 0.44 0.45 0.44 0.38 0.39 0.53 0.56 0.57 0.63 0.60 0.60 0.63 0.59 0.45 0.35 0.26 0.23 0.25 0.29 0.36 0.55 0.65 0.69 0.72 0.74 0.75 0.87 1.01 1.23 1.44 1.57
1.10 0.96 0.85 0.77 0.71 0.75 0.80 0.74 0.58 0.45 0.40 0.45 0.48 0.44 0.39 0.37 0.36 0.42 0.45 0.47 0.55 0.53 0.48 0.52 0.50 0.41 0.35 0.26 0.16 0.17 0.21 0.28 0.40 0.57 0.73 0.73 0.68 0.83 1.12 1.29 1.42 1.58 1.66
0.90 0.78 0.74 0.70 0.70 0.69 0.62 0.56 0.42 0.37 0.41 0.49 0.50 0.46 0.44 0.41 0.34 0.33 0.32 0.32 0.35 0.38 0.44 0.44 0.43 0.40 0.36 0.25 0.19 0.21 0.24 0.28 0.33 0.47 0.66 0.79 0.83 1.00 1.30 1.52 1.63 1.69 1.63
0.72 0.64 0.68 0.66 0.62 0.55 0.49 0.43 0.36 0.36 0.45 0.47 0.43 0.39 0.37 0.35 0.33 0.27 0.22 0.21 0.22 0.23 0.30 0.34 0.35 0.35 0.30 0.21 0.22 0.23 0.25 0.29 0.35 0.42 0.61 0.82 0.92 1.12 1.35 1.49 1.51 1.47 1.39
0.57 0.53 0.55 0.51 0.46 0.41 0.40 0.35 0.30 0.30 0.39 0.41 0.40 0.34 0.31 0.28 0.25 0.24 0.23 0.17 0.17 0.18 0.20 0.22 0.23 0.23 0.23 0.19 0.18 0.20 0.25 0.32 0.39 0.46 0.70 0.91 1.01 1.16 1.28 1.37 1.34 1.27 1.20